Wind_Speed
16 14 13 13 11 11 10 11 11 11 12 12 9 9 7 7 5 7 10 11 12 10 10 11 11 12 13 15 16 17 19 19 19 19 18 19 19 21 20 19 15 17 19
17 16 14 12 10 11 10 10 10 11 14 14 14 12 6 4 6 9 10 11 11 11 13 13 13 14 14 17 17 17 18 18 16 16 17 17 17 18 16 21 14 18 17
17 15 14 13 12 13 12 11 11 12 14 13 13 10 8 10 9 9 11 11 12 12 12 14 13 15 16 16 17 16 18 19 20 21 17 13 14 15 16 14 16 17 16
17 15 13 15 14 13 12 12 11 12 12 12 11 10 11 10 11 11 12 12 13 13 13 13 14 16 16 15 14 15 19 17 15 14 17 12 10 14 15 14 15 14 14
16 15 13 14 13 13 13 13 10 10 9 10 10 11 12 12 11 12 13 13 14 13 13 17 16 16 15 14 13 16 18 16 14 16 14 11 9 13 14 15 13 12 13
17 15 13 12 12 11 12 11 10 7 7 10 10 11 11 11 12 12 13 13 14 17 17 15 14 14 13 13 13 16 18 18 17 11 10 12 8 14 12 12 12 12 11
16 13 13 12 11 11 11 11 11 12 15 14 11 10 11 11 11 12 11 12 14 14 15 14 14 13 13 12 13 16 17 18 15 14 11 8 11 12 11 12 12 12 11
13 12 11 12 11 10 10 11 11 14 16 14 11 10 10 11 11 11 13 13 14 13 12 12 11 11 11 10 10 13 15 16 16 9 10 7 11 10 9 10 10 9 10
16 11 10 10 10 9 9 10 11 12 12 12 11 11 12 11 10 11 13 13 12 11 10 10 11 11 11 11 11 12 14 14 12 7 7 6 8 8 8 9 8 8 8
13 12 13 9 8 8 8 10 11 11 9 9 9 10 11 10 10 11 8 11 10 9 10 11 10 10 11 11 11 12 15 12 13 6 12 4 8 9 8 7 7 8 7
14 13 12 10 9 10 8 9 11 10 10 10 11 12 15 8 9 8 11 7 9 8 10 11 10 8 8 11 11 14 13 7 5 5 3 3 6 7 6 6 6 6 6
15 13 12 10 9 10 10 8 7 8 7 9 9 12 9 8 11 8 7 7 7 9 10 10 11 10 11 6 9 11 9 3 6 4 2 4 6 6 5 6 5 5 5
15 13 13 12 12 10 9 10 7 6 8 14 8 10 11 6 9 9 4 7 6 7 8 8 6 8 5 7 5 6 3 5 4 4 2 3 4 4 4 4 3 4 4
15 13 12 11 12 10 11 9 10 9 1 8 12 9 10 10 7 8 8 8 9 2 7 5 1 7 4 5 3 4 3 7 11 8 3 1 3 4 2 2 3 2 3
14 13 13 11 12 11 12 9 7 8 7 6 9 9 8 8 8 7 8 5 6 4 6 6 10 7 3 3 4 4 2 3 4 8 1 1 4 4 3 3 3 3 2
14 14 13 11 12 10 10 11 9 8 8 6 12 11 13 8 8 9 5 6 5 5 6 6 6 5 6 6 4 4 2 0 5 8 5 5 4 4 7 6 4 4 3
14 14 13 12 11 10 9 11 9 9 9 9 8 8 10 7 10 7 7 8 8 7 5 6 4 4 3 7 7 7 5 7 8 8 9 9 10 7 7 8 10 6 6
14 14 13 12 11 11 8 9 8 9 8 9 9 7 9 9 10 8 7 7 8 6 6 7 6 9 5 5 5 4 7 8 9 10 10 10 12 13 16 11 10 13 10
15 15 15 14 13 11 11 7 9 9 9 10 10 9 8 8 8 10 8 8 7 7 8 9 9 12 7 6 7 7 8 8 9 12 13 13 13 12 16 17 19 17 15
16 15 15 15 14 14 11 11 9 9 9 8 7 9 10 8 9 7 8 10 9 9 9 9 12 10 8 7 5 8 10 9 8 11 11 16 12 17 17 19 17 17 16
17 16 16 16 16 15 12 11 11 10 9 9 10 10 8 9 9 8 8 9 8 10 11 14 13 10 9 6 6 7 6 9 11 8 11 10 10 13 16 24 23 17 22
20 18 17 17 17 17 14 12 10 10 8 8 8 9 10 10 10 10 7 7 10 10 12 11 10 10 8 7 5 4 2 3 3 7 7 9 9 8 8 11 15 24 24
23 22 20 19 18 18 17 15 13 11 10 10 10 10 11 11 9 11 10 9 7 10 10 10 10 10 9 8 8 5 2 3 7 8 9 6 5 4 4 7 11 16 25
24 23 23 21 21 20 20 16 18 14 11 11 10 11 10 12 11 14 12 11 12 8 10 9 9 8 9 9 9 10 9 8 6 4 6 10 9 9 12 11 12 12 17
25 24 23 24 23 22 22 20 18 17 13 11 11 12 12 12 11 12 14 15 13 11 9 13 10 10 8 9 8 10 10 10 12 13 11 6 10 15 17 16 13 17 17
25 26 26 28 28 26 25 24 25 21 17 14 13 13 12 12 12 13 14 15 16 15 12 14 13 12 12 12 10 12 12 11 11 11 13 14 13 10 13 12 10 12 18
Wind_Direction
140 141 129 118 115 112 113 118 119 115 113 125 119 112 105 53 77 102 107 100 100 100 91 95 110 115 101 111 113 114 115 112 111 110 106 107 101 99 91 78 101 125 113
141 139 131 124 123 121 121 123 119 114 120 120 116 115 104 85 97 101 98 98 103 97 96 99 109 105 105 112 113 114 110 109 104 106 103 107 103 106 104 121 124 120 117
136 136 129 120 118 119 119 121 121 118 124 125 119 106 93 104 92 90 94 102 104 103 97 102 107 112 107 112 111 112 109 98 92 85 86 102 102 108 110 115 107 112 115
133 126 128 119 118 115 109 110 117 121 128 128 121 94 96 93 91 95 98 102 100 100 99 107 112 115 113 114 113 110 105 104 96 105 92 90 98 105 106 115 110 112 114
127 135 132 121 120 116 108 105 108 117 128 132 110 93 95 99 97 99 97 96 93 109 109 108 113 109 112 112 110 109 105 92 75 80 96 101 103 107 108 100 104 115 109
128 142 129 123 119 115 112 117 122 118 151 137 124 97 98 100 98 100 101 102 98 103 110 108 111 111 109 110 108 113 108 91 89 96 103 110 121 102 115 112 110 113 116
130 131 131 129 118 115 116 120 115 94 125 132 121 110 99 99 99 101 100 105 103 114 111 108 103 109 109 111 111 115 101 95 117 118 94 107 103 103 108 110 112 113 112
131 132 134 131 124 121 115 119 111 106 114 113 117 107 108 103 103 101 102 106 110 112 115 110 109 107 109 109 116 124 117 105 91 115 105 125 107 106 105 105 107 109 115
130 134 133 136 132 129 129 124 126 121 124 117 107 103 118 114 111 107 109 107 113 110 112 108 107 110 104 104 110 121 117 108 112 113 93 102 106 102 106 111 109 111 114
136 133 142 139 134 115 121 124 126 127 124 128 116 107 109 110 103 100 100 114 119 114 114 119 111 104 108 105 108 106 100 81 98 90 130 117 106 102 97 102 110 113 114
143 141 141 142 144 152 151 126 128 126 131 129 123 110 99 104 106 105 133 130 126 106 119 105 91 94 104 101 102 100 88 97 98 119 232 125 110 104 97 98 105 108 113
150 148 145 146 145 133 149 113 132 107 116 127 139 109 112 139 139 141 132 119 123 111 99 94 87 83 84 99 99 83 91 155 108 106 327 156 122 108 101 96 101 110 104
157 154 152 155 149 141 149 139 124 142 156 147 157 141 142 145 155 125 109 89 93 98 113 92 89 86 75 128 104 105 133 154 136 141 248 163 118 118 124 116 122 115 111
161 162 154 158 146 152 149 160 152 145 190 163 151 155 143 144 185 141 156 126 140 159 130 131 58 110 128 90 110 125 189 356 194 148 272 275 151 161 135 158 158 149 142
165 164 162 165 154 157 149 156 145 164 191 152 152 156 190 145 160 164 174 157 149 145 160 171 200 157 133 163 144 195 214 308 164 62 356 341 233 212 202 193 203 203 191
171 169 171 171 164 160 153 161 161 159 161 129 180 184 176 162 172 199 160 170 173 159 162 219 174 182 196 208 226 223 163 143 178 191 211 202 253 227 236 242 245 242 218
177 175 178 174 175 171 170 163 163 169 171 171 178 185 179 178 194 187 180 185 170 200 193 205 175 226 269 263 241 243 259 261 250 238 229 231 227 237 237 228 238 245 244
181 181 179 175 185 177 176 173 174 179 182 178 190 193 187 185 209 176 195 208 190 207 190 198 227 260 248 261 231 273 270 266 266 256 252 243 245 234 240 235 234 232 228
181 184 183 181 181 189 186 187 178 192 184 194 187 197 192 194 197 185 195 200 211 209 214 219 224 243 261 265 250 272 284 293 258 260 263 265 235 240 239 232 234 234 233
182 184 185 184 185 186 190 181 190 192 195 198 203 201 235 203 225 195 230 218 212 215 225 232 225 245 243 243 278 300 293 280 260 267 265 262 258 235 238 232 222 222 222
186 186 188 187 192 187 186 187 187 191 196 205 203 206 226 209 229 224 224 256 243 238 235 232 247 247 244 245 259 307 308 278 275 277 287 269 263 255 255 248 231 228 219
194 193 193 194 198 192 192 187 191 195 207 212 222 229 231 224 228 246 218 245 260 246 250 253 253 256 246 237 233 294 324 269 229 278 263 270 278 266 280 256 236 226 228
200 199 200 200 206 203 190 191 192 194 201 215 217 234 241 241 242 256 250 235 239 255 270 264 261 253 252 243 257 252 264 250 296 272 279 205 318 286 285 293 255 236 233
203 204 203 204 208 214 201 205 199 197 203 212 219 227 228 246 246 253 252 251 246 254 267 282 284 254 250 242 257 258 256 255 276 294 256 236 277 296 296 288 269 253 243
205 205 207 207 211 214 221 202 218 208 216 211 217 215 231 235 236 241 244 264 251 253 259 258 257 269 254 259 252 276 274 263 263 260 284 270 261 294 299 285 280 260 245
205 206 209 211 215 219 226 223 219 222 212 219 217 226 228 237 242 257 241 243 254 254 247 259 258 252 255 248 256 256 259 267 279 271 274 289 282 294 297 302 277 271 251
Height
1558 1557 1558 1559 1561 1563 1563 1564 1567 1567 1568 1568 1569 1568 1568 1572 1573 1573 1574 1574 1575 1576 1576 1576 1577 1578 1579 1579 1580 1580 1582 1583 1583 1583 1583 1584 1585 1586 1587 1587 1587 1587 1587
1556 1558 1560 1561 1562 1564 1566 1567 1568 1570 1571 1571 1573 1574 1575 1575 1574 1575 1576 1576 1578 1579 1578 1578 1579 1581 1581 1582 1583 1584 1585 1586 1586 1587 1587 1587 1589 1589 1589 1590 1590 1590 1590
1558 1559 1561 1562 1564 1566 1567 1569 1570 1572 1573 1573 1574 1576 1576 1576 1576 1577 1577 1578 1579 1580 1581 1581 1582 1583 1584 1585 1586 1587 1588 1590 1590 1590 1591 1592 1591 1591 1592 1593 1593 1593 1593
1560 1563 1563 1564 1566 1567 1569 1571 1571 1573 1574 1575 1577 1578 1577 1577 1578 1579 1580 1580 1581 1582 1583 1584 1585 1586 1587 1588 1590 1591 1592 1592 1592 1593 1596 1598 1597 1594 1593 1595 1595 1596 1596
1563 1566 1564 1566 1567 1569 1570 1572 1573 1575 1576 1578 1579 1579 1579 1580 1580 1582 1582 1583 1584 1585 1586 1587 1588 1589 1589 1590 1592 1593 1595 1595 1595 1597 1600 1600 1599 1596 1597 1597 1599 1598 1599
1564 1565 1566 1568 1569 1571 1572 1573 1575 1575 1577 1579 1580 1581 1581 1582 1583 1584 1586 1586 1587 1588 1589 1590 1591 1591 1591 1592 1594 1596 1597 1598 1599 1600 1602 1601 1600 1599 1599 1599 1600 1601 1601
1565 1567 1567 1569 1571 1572 1573 1575 1575 1576 1577 1580 1581 1583 1584 1584 1585 1586 1587 1589 1589 1590 1591 1593 1593 1594 1594 1595 1596 1598 1598 1599 1601 1603 1605 1604 1601 1601 1601 1602 1602 1603 1604
1567 1570 1569 1570 1572 1573 1575 1576 1577 1579 1580 1582 1583 1585 1585 1587 1587 1589 1589 1591 1592 1593 1594 1595 1595 1595 1596 1597 1598 1599 1600 1601 1602 1603 1606 1604 1603 1604 1604 1604 1605 1605 1606
1569 1571 1573 1574 1573 1575 1576 1577 1579 1581 1583 1584 1585 1586 1588 1589 1590 1591 1592 1594 1595 1596 1596 1596 1597 1597 1598 1599 1599 1601 1602 1603 1606 1606 1608 1607 1606 1606 1606 1606 1607 1608 1608
1571 1573 1574 1577 1577 1578 1577 1579 1580 1582 1583 1585 1587 1589 1590 1592 1593 1594 1596 1596 1597 1599 1598 1599 1599 1599 1599 1600 1601 1603 1604 1606 1608 1609 1608 1608 1608 1608 1608 1609 1609 1609 1610
1572 1574 1576 1578 1579 1580 1581 1580 1582 1584 1585 1587 1589 1591 1592 1596 1597 1596 1597 1598 1598 1599 1600 1600 1600 1601 1601 1602 1604 1605 1606 1609 1610 1611 1609 1610 1610 1610 1610 1611 1611 1611 1611
1572 1575 1577 1580 1581 1582 1584 1583 1586 1587 1589 1591 1593 1593 1596 1599 1598 1600 1598 1599 1600 1601 1602 1602 1603 1603 1603 1605 1606 1607 1607 1610 1611 1612 1610 1611 1611 1611 1611 1612 1613 1613 1613
1573 1575 1578 1580 1581 1584 1585 1587 1588 1589 1591 1591 1594 1596 1597 1600 1600 1602 1601 1601 1602 1602 1604 1605 1605 1605 1605 1606 1608 1608 1609 1607 1610 1612 1610 1611 1611 1611 1612 1612 1613 1614 1614
1573 1576 1579 1581 1583 1585 1586 1587 1589 1591 1591 1591 1594 1597 1597 1600 1600 1602 1602 1604 1604 1604 1604 1607 1607 1608 1608 1607 1609 1609 1608 1593 1602 1606 1611 1612 1611 1611 1613 1613 1614 1615 1614
1573 1577 1579 1581 1583 1585 1586 1588 1589 1591 1591 1592 1594 1597 1598 1598 1601 1603 1603 1604 1604 1605 1606 1607 1606 1607 1609 1610 1609 1609 1609 1607 1606 1606 1607 1612 1612 1612 1612 1614 1615 1615 1616
1573 1576 1579 1581 1582 1585 1587 1588 1590 1592 1592 1592 1594 1596 1597 1598 1601 1601 1602 1602 1604 1605 1606 1604 1605 1606 1607 1607 1608 1608 1609 1609 1610 1611 1611 1611 1612 1612 1612 1615 1616 1616 1616
1573 1576 1579 1582 1583 1584 1586 1588 1591 1592 1593 1594 1593 1595 1597 1597 1599 1601 1602 1602 1603 1604 1604 1603 1604 1606 1606 1605 1607 1607 1609 1608 1608 1609 1609 1610 1608 1611 1612 1613 1615 1615 1615
1573 1576 1579 1582 1584 1585 1587 1587 1591 1592 1593 1594 1594 1595 1596 1597 1597 1598 1602 1602 1602 1604 1604 1606 1606 1604 1605 1604 1605 1605 1606 1607 1607 1606 1607 1607 1608 1607 1610 1611 1612 1612 1615
1571 1574 1577 1580 1583 1584 1586 1588 1590 1591 1592 1593 1594 1595 1595 1596 1597 1598 1600 1602 1601 1603 1603 1604 1604 1603 1603 1602 1603 1604 1604 1604 1605 1604 1604 1604 1604 1604 1602 1608 1609 1610 1612
1570 1572 1575 1578 1581 1583 1584 1586 1589 1591 1592 1592 1594 1594 1594 1596 1597 1597 1598 1599 1599 1601 1602 1602 1601 1601 1601 1601 1601 1602 1602 1601 1601 1601 1600 1600 1601 1601 1600 1602 1605 1606 1609
1568 1571 1573 1575 1577 1580 1583 1585 1588 1590 1591 1592 1593 1594 1595 1595 1596 1597 1597 1597 1598 1598 1599 1600 1599 1600 1600 1600 1600 1600 1600 1601 1597 1599 1597 1597 1597 1598 1597 1599 1601 1603 1604
1566 1569 1571 1572 1574 1576 1580 1583 1586 1588 1590 1591 1593 1592 1594 1594 1596 1596 1596 1597 1597 1598 1596 1597 1597 1597 1597 1597 1598 1597 1598 1598 1597 1596 1596 1596 1595 1595 1594 1595 1596 1599 1600
1563 1566 1568 1570 1572 1574 1578 1580 1583 1586 1587 1590 1591 1592 1592 1593 1594 1595 1595 1595 1595 1596 1596 1595 1595 1595 1595 1596 1595 1596 1596 1596 1595 1594 1593 1592 1590 1591 1591 1590 1591 1591 1595
1559 1563 1566 1568 1569 1571 1574 1578 1579 1582 1584 1586 1588 1589 1591 1590 1592 1592 1594 1594 1594 1595 1593 1594 1593 1593 1593 1593 1593 1593 1593 1594 1593 1593 1591 1590 1589 1588 1587 1586 1588 1587 1589
1554 1559 1563 1564 1566 1568 1570 1575 1577 1579 1582 1583 1584 1586 1587 1589 1589 1590 1591 1590 1591 1592 1594 1594 1593 1592 1591 1591 1591 1590 1590 1590 1590 1590 1588 1587 1586 1586 1584 1583 1582 1581 1583
1550 1553 1556 1557 1559 1562 1566 1569 1572 1575 1577 1580 1581 1582 1584 1584 1585 1584 1586 1587 1587 1588 1590 1591 1590 1589 1589 1589 1588 1589 1589 1588 1587 1587 1585 1584 1585 1583 1581 1579 1578 1577 1578